Location: Audrecelles
(50.8240°N, 1.5923°E)
Time: 02:32:10
(UTC+00:00)

Cosmos 44 - Pass Details

Date: 18 October 2025
Orbit: 576 x 774 km, 65.1° (Epoch: 13 November)

Event Time Altitude Azimuth Distance (km) Brightness Sun altitude
Exits shadow 02:45:49 19° 7° (N) 1,655 5.5 -33.8°
Maximum altitude 02:46:36 20° 20° (NNE) 1,633 5.6 -33.7°
Drops below altitude 10° 02:50:19 10° 67° (ENE) 2,240 6.7 -33.2°
Sets 02:53:23 0° 84° (E) 3,193 7.6 -32.8°
